Location: Broek
(53.2737°N, 5.9967°E)
Time: 22:30:16
(UTC+00:00)

ERS-1 Rocket - Pass Details

Date: 10 October 2024
Orbit: 748 x 754 km, 98.3° (Epoch: 09 November)

Event Time Altitude Azimuth Distance (km) Brightness Sun altitude
Exits shadow 20:03:00 41° 11° (N) 1,083 3.8 -28.7°
Drops below altitude 10° 20:06:26 10° 351° (N) 2,292 5.9 -29.2°
Sets 20:08:45 0° 348° (NNW) 3,220 6.8 -29.5°
